Year,Month,Day,Hour,Minute,Value (Times are PST for temperature in C)
2010,06,21,00,00,10.60
2010,06,21,00,01,10.60
2010,06,21,00,02,10.60
2010,06,21,00,03,10.50
2010,06,21,00,04,10.60
2010,06,21,00,05,10.50
2010,06,21,00,06,10.50
2010,06,21,00,07,10.50
2010,06,21,00,08,10.50
2010,06,21,00,09,10.50
2010,06,21,00,10,10.50
2010,06,21,00,11,10.50
2010,06,21,00,12,10.50
2010,06,21,00,13,10.50
2010,06,21,00,14,10.50
2010,06,21,00,15,10.50
2010,06,21,00,16,10.40
2010,06,21,00,17,10.40
2010,06,21,00,18,10.40
2010,06,21,00,19,10.40
2010,06,21,00,20,10.40
2010,06,21,00,21,10.40
2010,06,21,00,22,10.40
2010,06,21,00,23,10.40
2010,06,21,00,24,10.40
2010,06,21,00,25,10.40
2010,06,21,00,26,10.40
2010,06,21,00,27,10.40
2010,06,21,00,28,10.40
2010,06,21,00,29,10.40
2010,06,21,00,30,10.40
2010,06,21,00,31,10.40
2010,06,21,00,32,10.40
2010,06,21,00,33,10.40
2010,06,21,00,34,10.40
2010,06,21,00,35,10.30
2010,06,21,00,36,10.30
2010,06,21,00,37,10.30
2010,06,21,00,38,10.30
2010,06,21,00,39,10.30
2010,06,21,00,40,10.30
2010,06,21,00,41,10.30
2010,06,21,00,42,10.30
2010,06,21,00,43,10.30
2010,06,21,00,44,10.30
2010,06,21,00,45,10.30
2010,06,21,00,46,10.30
2010,06,21,00,47,10.30
2010,06,21,00,48,10.20
2010,06,21,00,49,10.20
2010,06,21,00,50,10.20
2010,06,21,00,51,10.20
2010,06,21,00,52,10.20
2010,06,21,00,53,10.20
2010,06,21,00,54,10.20
2010,06,21,00,55,10.20
2010,06,21,00,56,10.20
2010,06,21,00,57,10.20
2010,06,21,00,58,10.20
2010,06,21,00,59,10.20
2010,06,21,01,00,10.20
2010,06,21,01,01,10.10
2010,06,21,01,02,10.10
2010,06,21,01,03,10.10
2010,06,21,01,04,10.10
2010,06,21,01,05,10.10
2010,06,21,01,06,10.10
2010,06,21,01,07,10.10
2010,06,21,01,08,10.10
2010,06,21,01,09,10.10
2010,06,21,01,10,10.10
2010,06,21,01,11,10.10
2010,06,21,01,12,10.10
2010,06,21,01,13,10.10
2010,06,21,01,14,10.10
2010,06,21,01,15,10.10
2010,06,21,01,16,10.10
2010,06,21,01,17,10.10
2010,06,21,01,18,10.10
2010,06,21,01,19,10.10
2010,06,21,01,20,10.00
2010,06,21,01,21,10.00
2010,06,21,01,22,10.00
2010,06,21,01,23,10.00
2010,06,21,01,24,10.00
2010,06,21,01,25,10.00
2010,06,21,01,26,10.00
2010,06,21,01,27,10.00
2010,06,21,01,28,10.00
2010,06,21,01,29,10.00
2010,06,21,01,30,10.00
2010,06,21,01,31,10.00
2010,06,21,01,32,10.00
2010,06,21,01,33,10.00
2010,06,21,01,34,10.10
2010,06,21,01,35,10.10
2010,06,21,01,36,10.10
2010,06,21,01,37,10.10
2010,06,21,01,38,10.10
2010,06,21,01,39,10.10
2010,06,21,01,40,10.10
2010,06,21,01,41,10.10
2010,06,21,01,42,10.10
2010,06,21,01,43,10.10
2010,06,21,01,44,10.10
2010,06,21,01,45,10.10
2010,06,21,01,46,10.10
2010,06,21,01,47,10.10
2010,06,21,01,48,10.10
2010,06,21,01,49,10.00
2010,06,21,01,50,10.00
2010,06,21,01,51,10.00
2010,06,21,01,52,10.00
2010,06,21,01,53,10.00
2010,06,21,01,54,10.00
2010,06,21,01,55,10.00
2010,06,21,01,56,10.00
2010,06,21,01,57,10.00
2010,06,21,01,58,10.00
2010,06,21,01,59,10.00
2010,06,21,02,00,10.00
2010,06,21,02,01,9.90
2010,06,21,02,02,9.90
2010,06,21,02,03,9.90
2010,06,21,02,04,9.90
2010,06,21,02,05,9.90
2010,06,21,02,06,9.90
2010,06,21,02,07,9.90
2010,06,21,02,08,9.90
2010,06,21,02,09,9.90
2010,06,21,02,10,9.90
2010,06,21,02,11,9.90
2010,06,21,02,12,9.90
2010,06,21,02,13,9.90
2010,06,21,02,14,9.90
2010,06,21,02,15,9.90
2010,06,21,02,16,9.90
2010,06,21,02,17,9.90
2010,06,21,02,18,9.90
2010,06,21,02,19,9.90
2010,06,21,02,20,9.90
2010,06,21,02,21,9.90
2010,06,21,02,22,9.90
2010,06,21,02,23,9.90
2010,06,21,02,24,9.90
2010,06,21,02,25,9.90
2010,06,21,02,26,9.90
2010,06,21,02,27,9.90
2010,06,21,02,28,9.90
2010,06,21,02,29,9.90
2010,06,21,02,30,9.90
2010,06,21,02,31,9.90
2010,06,21,02,32,9.90
2010,06,21,02,33,9.90
2010,06,21,02,34,9.90
2010,06,21,02,35,9.90
2010,06,21,02,36,9.90
2010,06,21,02,37,9.90
2010,06,21,02,38,9.90
2010,06,21,02,39,9.90
2010,06,21,02,40,9.90
2010,06,21,02,41,9.90
2010,06,21,02,42,9.90
2010,06,21,02,43,9.90
2010,06,21,02,44,9.90
2010,06,21,02,45,9.90
2010,06,21,02,46,9.90
2010,06,21,02,47,9.90
2010,06,21,02,48,9.90
2010,06,21,02,49,9.80
2010,06,21,02,50,9.80
2010,06,21,02,51,9.80
2010,06,21,02,52,9.90
2010,06,21,02,53,9.90
2010,06,21,02,54,9.90
2010,06,21,02,55,9.90
2010,06,21,02,56,9.90
2010,06,21,02,57,9.90
2010,06,21,02,58,9.90
2010,06,21,02,59,9.90
2010,06,21,03,00,9.90
2010,06,21,03,01,9.90
2010,06,21,03,02,9.90
2010,06,21,03,03,9.90
2010,06,21,03,04,9.90
2010,06,21,03,05,9.90
2010,06,21,03,06,9.90
2010,06,21,03,07,9.90
2010,06,21,03,08,9.90
2010,06,21,03,09,10.00
2010,06,21,03,10,10.00
2010,06,21,03,11,10.00
2010,06,21,03,12,10.00
2010,06,21,03,13,10.00
2010,06,21,03,14,10.00
2010,06,21,03,15,10.00
2010,06,21,03,16,10.00
2010,06,21,03,17,10.00
2010,06,21,03,18,10.10
2010,06,21,03,19,10.10
2010,06,21,03,20,10.10
2010,06,21,03,21,10.10
2010,06,21,03,22,10.10
2010,06,21,03,23,10.10
2010,06,21,03,24,10.10
2010,06,21,03,25,10.10
2010,06,21,03,26,10.10
2010,06,21,03,27,10.10
2010,06,21,03,28,10.10
2010,06,21,03,29,10.10
2010,06,21,03,30,10.20
2010,06,21,03,31,10.20
2010,06,21,03,32,10.20
2010,06,21,03,33,10.20
2010,06,21,03,34,10.20
2010,06,21,03,35,10.20
2010,06,21,03,36,10.20
2010,06,21,03,37,10.20
2010,06,21,03,38,10.20
2010,06,21,03,39,10.20
2010,06,21,03,40,10.20
2010,06,21,03,41,10.20
2010,06,21,03,42,10.20
2010,06,21,03,43,10.20
2010,06,21,03,44,10.20
2010,06,21,03,45,10.20
2010,06,21,03,46,10.20
2010,06,21,03,47,10.20
2010,06,21,03,48,10.20
2010,06,21,03,49,10.20
2010,06,21,03,50,10.10
2010,06,21,03,51,10.20
2010,06,21,03,52,10.10
2010,06,21,03,53,10.10
2010,06,21,03,54,10.10
2010,06,21,03,55,10.10
2010,06,21,03,56,10.10
2010,06,21,03,57,10.10
2010,06,21,03,58,10.10
2010,06,21,03,59,10.10
2010,06,21,04,00,10.10
2010,06,21,04,01,10.10
2010,06,21,04,02,10.10
2010,06,21,04,03,10.10
2010,06,21,04,04,10.10
2010,06,21,04,05,10.10
2010,06,21,04,06,10.10
2010,06,21,04,07,10.10
2010,06,21,04,08,10.10
2010,06,21,04,09,10.10
2010,06,21,04,10,10.10
2010,06,21,04,11,10.10
2010,06,21,04,12,10.10
2010,06,21,04,13,10.10
2010,06,21,04,14,10.10
2010,06,21,04,15,10.10
2010,06,21,04,16,10.10
2010,06,21,04,17,10.10
2010,06,21,04,18,10.10
2010,06,21,04,19,10.10
2010,06,21,04,20,10.10
2010,06,21,04,21,10.10
2010,06,21,04,22,10.10
2010,06,21,04,23,10.00
2010,06,21,04,24,10.00
2010,06,21,04,25,10.00
2010,06,21,04,26,10.00
2010,06,21,04,27,10.00
2010,06,21,04,28,10.00
2010,06,21,04,29,10.00
2010,06,21,04,30,10.00
2010,06,21,04,31,10.00
2010,06,21,04,32,10.00
2010,06,21,04,33,10.00
2010,06,21,04,34,10.00
2010,06,21,04,35,10.00
2010,06,21,04,36,9.90
2010,06,21,04,37,10.00
2010,06,21,04,38,10.00
2010,06,21,04,39,10.00
2010,06,21,04,40,10.00
2010,06,21,04,41,10.00
2010,06,21,04,42,10.00
2010,06,21,04,43,10.00
2010,06,21,04,44,10.00
2010,06,21,04,45,10.00
2010,06,21,04,46,10.00
2010,06,21,04,47,10.00
2010,06,21,04,48,10.00
2010,06,21,04,49,10.10
2010,06,21,04,50,10.10
2010,06,21,04,51,10.10
2010,06,21,04,52,10.10
2010,06,21,04,53,10.10
2010,06,21,04,54,10.10
2010,06,21,04,55,10.10
2010,06,21,04,56,10.10
2010,06,21,04,57,10.00
2010,06,21,04,58,10.00
2010,06,21,04,59,10.00
2010,06,21,05,00,10.10
2010,06,21,05,01,10.10
2010,06,21,05,02,10.00
2010,06,21,05,03,10.00
2010,06,21,05,04,10.00
2010,06,21,05,05,10.00
2010,06,21,05,06,10.00
2010,06,21,05,07,10.00
2010,06,21,05,08,10.00
2010,06,21,05,09,10.00
2010,06,21,05,10,10.00
2010,06,21,05,11,10.00
2010,06,21,05,12,10.00
2010,06,21,05,13,10.00
2010,06,21,05,14,10.00
2010,06,21,05,15,9.90
2010,06,21,05,16,9.90
2010,06,21,05,17,9.90
2010,06,21,05,18,9.90
2010,06,21,05,19,9.90
2010,06,21,05,20,9.90
2010,06,21,05,21,9.90
2010,06,21,05,22,9.90
2010,06,21,05,23,9.90
2010,06,21,05,24,9.90
2010,06,21,05,25,9.90
2010,06,21,05,26,9.90
2010,06,21,05,27,9.90
2010,06,21,05,28,9.90
2010,06,21,05,29,9.90
2010,06,21,05,30,9.90
2010,06,21,05,31,9.90
2010,06,21,05,32,9.90
2010,06,21,05,33,9.90
2010,06,21,05,34,9.90
2010,06,21,05,35,9.90
2010,06,21,05,36,9.90
2010,06,21,05,37,9.90
2010,06,21,05,38,10.00
2010,06,21,05,39,10.00
2010,06,21,05,40,10.00
2010,06,21,05,41,10.00
2010,06,21,05,42,10.00
2010,06,21,05,43,10.00
2010,06,21,05,44,10.00
2010,06,21,05,45,10.00
2010,06,21,05,46,10.00
2010,06,21,05,47,10.00
2010,06,21,05,48,10.00
2010,06,21,05,49,10.10
2010,06,21,05,50,10.10
2010,06,21,05,51,10.10
2010,06,21,05,52,10.10
2010,06,21,05,53,10.10
2010,06,21,05,54,10.10
2010,06,21,05,55,10.10
2010,06,21,05,56,10.10
2010,06,21,05,57,10.10
2010,06,21,05,58,10.10
2010,06,21,05,59,10.10
2010,06,21,06,00,10.20
2010,06,21,06,01,10.20
2010,06,21,06,02,10.20
2010,06,21,06,03,10.20
2010,06,21,06,04,10.20
2010,06,21,06,05,10.20
2010,06,21,06,06,10.20
2010,06,21,06,07,10.20
2010,06,21,06,08,10.20
2010,06,21,06,09,10.20
2010,06,21,06,10,10.30
2010,06,21,06,11,10.30
2010,06,21,06,12,10.30
2010,06,21,06,13,10.30
2010,06,21,06,14,10.30
2010,06,21,06,15,10.30
2010,06,21,06,16,10.30
2010,06,21,06,17,10.30
2010,06,21,06,18,10.40
2010,06,21,06,19,10.40
2010,06,21,06,20,10.40
2010,06,21,06,21,10.40
2010,06,21,06,22,10.40
2010,06,21,06,23,10.40
2010,06,21,06,24,10.40
2010,06,21,06,25,10.40
2010,06,21,06,26,10.40
2010,06,21,06,27,10.40
2010,06,21,06,28,10.40
2010,06,21,06,29,10.50
2010,06,21,06,30,10.50
2010,06,21,06,31,10.50
2010,06,21,06,32,10.50
2010,06,21,06,33,10.50
2010,06,21,06,34,10.50
2010,06,21,06,35,10.50
2010,06,21,06,36,10.50
2010,06,21,06,37,10.50
2010,06,21,06,38,10.50
2010,06,21,06,39,10.50
2010,06,21,06,40,10.60
2010,06,21,06,41,10.60
2010,06,21,06,42,10.60
2010,06,21,06,43,10.60
2010,06,21,06,44,10.60
2010,06,21,06,45,10.60
2010,06,21,06,46,10.60
2010,06,21,06,47,10.60
2010,06,21,06,48,10.70
2010,06,21,06,49,10.70
2010,06,21,06,50,10.70
2010,06,21,06,51,10.70
2010,06,21,06,52,10.70
2010,06,21,06,53,10.70
2010,06,21,06,54,10.70
2010,06,21,06,55,10.70
2010,06,21,06,56,10.70
2010,06,21,06,57,10.70
2010,06,21,06,58,10.70
2010,06,21,06,59,10.70
2010,06,21,07,00,10.70
2010,06,21,07,01,10.80
2010,06,21,07,02,10.80
2010,06,21,07,03,10.80
2010,06,21,07,04,10.80
2010,06,21,07,05,10.80
2010,06,21,07,06,10.80
2010,06,21,07,07,10.80
2010,06,21,07,08,10.80
2010,06,21,07,09,10.80
2010,06,21,07,10,10.80
2010,06,21,07,11,10.80
2010,06,21,07,12,10.80
2010,06,21,07,13,10.80
2010,06,21,07,14,10.80
2010,06,21,07,15,10.80
2010,06,21,07,16,10.80
2010,06,21,07,17,10.90
2010,06,21,07,18,10.90
2010,06,21,07,19,10.90
2010,06,21,07,20,10.90
2010,06,21,07,21,10.90
2010,06,21,07,22,10.90
2010,06,21,07,23,10.90
2010,06,21,07,24,10.90
2010,06,21,07,25,10.90
2010,06,21,07,26,10.90
2010,06,21,07,27,10.90
2010,06,21,07,28,10.90
2010,06,21,07,29,10.90
2010,06,21,07,30,10.90
2010,06,21,07,31,10.90
2010,06,21,07,32,10.90
2010,06,21,07,33,10.90
2010,06,21,07,34,10.90
2010,06,21,07,35,10.90
2010,06,21,07,36,10.90
2010,06,21,07,37,10.90
2010,06,21,07,38,10.90
2010,06,21,07,39,10.90
2010,06,21,07,40,10.90
2010,06,21,07,41,10.90
2010,06,21,07,42,10.90
2010,06,21,07,43,10.90
2010,06,21,07,44,10.90
2010,06,21,07,45,10.90
2010,06,21,07,46,10.90
2010,06,21,07,47,10.90
2010,06,21,07,48,10.90
2010,06,21,07,49,10.90
2010,06,21,07,50,10.90
2010,06,21,07,51,10.90
2010,06,21,07,52,10.90
2010,06,21,07,53,10.90
2010,06,21,07,54,10.90
2010,06,21,07,55,10.90
2010,06,21,07,56,10.90
2010,06,21,07,57,10.90
2010,06,21,07,58,11.00
2010,06,21,07,59,10.90
2010,06,21,08,00,10.90
2010,06,21,08,01,11.00
2010,06,21,08,02,11.00
2010,06,21,08,03,11.00
2010,06,21,08,04,11.00
2010,06,21,08,05,11.00
2010,06,21,08,06,11.00
2010,06,21,08,07,11.10
2010,06,21,08,08,11.10
2010,06,21,08,09,11.10
2010,06,21,08,10,11.10
2010,06,21,08,11,11.10
2010,06,21,08,12,11.10
2010,06,21,08,13,11.10
2010,06,21,08,14,11.10
2010,06,21,08,15,11.10
2010,06,21,08,16,11.10
2010,06,21,08,17,11.10
2010,06,21,08,18,11.10
2010,06,21,08,19,11.10
2010,06,21,08,20,11.10
2010,06,21,08,21,11.10
2010,06,21,08,22,11.10
2010,06,21,08,23,11.10
2010,06,21,08,24,11.10
2010,06,21,08,25,11.10
2010,06,21,08,26,11.10
2010,06,21,08,27,11.20
2010,06,21,08,28,11.20
2010,06,21,08,29,11.20
2010,06,21,08,30,11.20
2010,06,21,08,31,11.20
2010,06,21,08,32,11.20
2010,06,21,08,33,11.20
2010,06,21,08,34,11.20
2010,06,21,08,35,11.20
2010,06,21,08,36,11.20
2010,06,21,08,37,11.20
2010,06,21,08,38,11.20
2010,06,21,08,39,11.20
2010,06,21,08,40,11.20
2010,06,21,08,41,11.20
2010,06,21,08,42,11.20
2010,06,21,08,43,11.20
2010,06,21,08,44,11.20
2010,06,21,08,45,11.20
2010,06,21,08,46,11.20
2010,06,21,08,47,11.20
2010,06,21,08,48,11.20
2010,06,21,08,49,11.20
2010,06,21,08,50,11.20
2010,06,21,08,51,11.30
2010,06,21,08,52,11.30
2010,06,21,08,53,11.30
2010,06,21,08,54,11.30
2010,06,21,08,55,11.20
2010,06,21,08,56,11.30
2010,06,21,08,57,11.30
2010,06,21,08,58,11.30
2010,06,21,08,59,11.20
2010,06,21,09,00,11.20
2010,06,21,09,01,11.20
2010,06,21,09,02,11.20
2010,06,21,09,03,11.20
2010,06,21,09,04,11.30
2010,06,21,09,05,11.30
2010,06,21,09,06,11.30
2010,06,21,09,07,11.40
2010,06,21,09,08,11.40
2010,06,21,09,09,11.40
2010,06,21,09,10,11.40
2010,06,21,09,11,11.30
2010,06,21,09,12,11.30
2010,06,21,09,13,11.30
2010,06,21,09,14,11.30
2010,06,21,09,15,11.30
2010,06,21,09,16,11.30
2010,06,21,09,17,11.40
2010,06,21,09,18,11.40
2010,06,21,09,19,11.40
2010,06,21,09,20,11.40
2010,06,21,09,21,11.40
2010,06,21,09,22,11.30
2010,06,21,09,23,11.40
2010,06,21,09,24,11.40
2010,06,21,09,25,11.40
2010,06,21,09,26,11.40
2010,06,21,09,27,11.40
2010,06,21,09,28,11.40
2010,06,21,09,29,11.40
2010,06,21,09,30,11.50
2010,06,21,09,31,11.50
2010,06,21,09,32,11.50
2010,06,21,09,33,11.50
2010,06,21,09,34,11.50
2010,06,21,09,35,11.50
2010,06,21,09,36,11.50
2010,06,21,09,37,11.50
2010,06,21,09,38,11.50
2010,06,21,09,39,11.60
2010,06,21,09,40,11.60
2010,06,21,09,41,11.60
2010,06,21,09,42,11.70
2010,06,21,09,43,11.70
2010,06,21,09,44,11.70
2010,06,21,09,45,11.70
2010,06,21,09,46,11.80
2010,06,21,09,47,11.80
2010,06,21,09,48,11.80
2010,06,21,09,49,11.80
2010,06,21,09,50,11.80
2010,06,21,09,51,11.90
2010,06,21,09,52,11.90
2010,06,21,09,53,11.90
2010,06,21,09,54,11.90
2010,06,21,09,55,12.00
2010,06,21,09,56,12.00
2010,06,21,09,57,12.00
2010,06,21,09,58,12.10
2010,06,21,09,59,12.10
2010,06,21,10,00,12.10
2010,06,21,10,01,12.20
2010,06,21,10,02,12.20
2010,06,21,10,03,12.20
2010,06,21,10,04,12.20
2010,06,21,10,05,12.20
2010,06,21,10,06,12.30
2010,06,21,10,07,12.30
2010,06,21,10,08,12.40
2010,06,21,10,09,12.50
2010,06,21,10,10,12.50
2010,06,21,10,11,12.60
2010,06,21,10,12,12.60
2010,06,21,10,13,12.70
2010,06,21,10,14,12.70
2010,06,21,10,15,12.70
2010,06,21,10,16,12.80
2010,06,21,10,17,12.80
2010,06,21,10,18,12.80
2010,06,21,10,19,12.80
2010,06,21,10,20,12.80
2010,06,21,10,21,12.90
2010,06,21,10,22,12.90
2010,06,21,10,23,12.90
2010,06,21,10,24,12.90
2010,06,21,10,25,13.00
2010,06,21,10,26,13.00
2010,06,21,10,27,13.00
2010,06,21,10,28,13.10
2010,06,21,10,29,13.10
2010,06,21,10,30,13.00
2010,06,21,10,31,13.00
2010,06,21,10,32,13.00
2010,06,21,10,33,13.00
2010,06,21,10,34,12.90
2010,06,21,10,35,13.00
2010,06,21,10,36,13.00
2010,06,21,10,37,13.10
2010,06,21,10,38,13.20
2010,06,21,10,39,13.20
2010,06,21,10,40,13.20
2010,06,21,10,41,13.20
2010,06,21,10,42,13.20
2010,06,21,10,43,13.20
2010,06,21,10,44,13.30
2010,06,21,10,45,13.40
2010,06,21,10,46,13.50
2010,06,21,10,47,13.50
2010,06,21,10,48,13.60
2010,06,21,10,49,13.60
2010,06,21,10,50,13.60
2010,06,21,10,51,13.60
2010,06,21,10,52,13.70
2010,06,21,10,53,13.70
2010,06,21,10,54,13.80
2010,06,21,10,55,13.90
2010,06,21,10,56,14.00
2010,06,21,10,57,14.00
2010,06,21,10,58,14.00
2010,06,21,10,59,14.00
2010,06,21,11,00,14.00
2010,06,21,11,01,14.10
2010,06,21,11,02,14.20
2010,06,21,11,03,14.30
2010,06,21,11,04,14.30
2010,06,21,11,05,14.30
2010,06,21,11,06,14.40
2010,06,21,11,07,14.50
2010,06,21,11,08,14.60
2010,06,21,11,09,14.60
2010,06,21,11,10,14.70
2010,06,21,11,11,14.90
2010,06,21,11,12,15.00
2010,06,21,11,13,14.90
2010,06,21,11,14,14.90
2010,06,21,11,15,15.00
2010,06,21,11,16,15.00
2010,06,21,11,17,15.00
2010,06,21,11,18,15.00
2010,06,21,11,19,15.20
2010,06,21,11,20,15.30
2010,06,21,11,21,15.40
2010,06,21,11,22,15.40
2010,06,21,11,23,15.50
2010,06,21,11,24,15.50
2010,06,21,11,25,15.70
2010,06,21,11,26,15.70
2010,06,21,11,27,15.60
2010,06,21,11,28,15.60
2010,06,21,11,29,15.60
2010,06,21,11,30,15.60
2010,06,21,11,31,15.70
2010,06,21,11,32,15.80
2010,06,21,11,33,15.80
2010,06,21,11,34,15.80
2010,06,21,11,35,15.80
2010,06,21,11,36,15.80
2010,06,21,11,37,15.70
2010,06,21,11,38,15.60
2010,06,21,11,39,15.50
2010,06,21,11,40,15.50
2010,06,21,11,41,15.60
2010,06,21,11,42,15.60
2010,06,21,11,43,15.70
2010,06,21,11,44,15.80
2010,06,21,11,45,15.80
2010,06,21,11,46,15.80
2010,06,21,11,47,15.80
2010,06,21,11,48,15.90
2010,06,21,11,49,16.00
2010,06,21,11,50,16.20
2010,06,21,11,51,16.30
2010,06,21,11,52,16.40
2010,06,21,11,53,16.30
2010,06,21,11,54,16.20
2010,06,21,11,55,16.10
2010,06,21,11,56,16.00
2010,06,21,11,57,16.00
2010,06,21,11,58,15.90
2010,06,21,11,59,15.80
2010,06,21,12,00,15.80
2010,06,21,12,01,15.80
2010,06,21,12,02,15.90
2010,06,21,12,03,15.80
2010,06,21,12,04,15.80
2010,06,21,12,05,15.80
2010,06,21,12,06,15.90
2010,06,21,12,07,16.00
2010,06,21,12,08,16.10
2010,06,21,12,09,16.20
2010,06,21,12,10,16.20
2010,06,21,12,11,16.30
2010,06,21,12,12,16.30
2010,06,21,12,13,16.30
2010,06,21,12,14,16.40
2010,06,21,12,15,16.50
2010,06,21,12,16,16.50
2010,06,21,12,17,16.50
2010,06,21,12,18,16.60
2010,06,21,12,19,16.70
2010,06,21,12,20,16.80
2010,06,21,12,21,16.80
2010,06,21,12,22,16.80
2010,06,21,12,23,16.70
2010,06,21,12,24,16.70
2010,06,21,12,25,16.70
2010,06,21,12,26,16.60
2010,06,21,12,27,16.60
2010,06,21,12,28,16.60
2010,06,21,12,29,16.70
2010,06,21,12,30,16.50
2010,06,21,12,31,16.40
2010,06,21,12,32,16.40
2010,06,21,12,33,16.40
2010,06,21,12,34,16.30
2010,06,21,12,35,16.40
2010,06,21,12,36,16.40
2010,06,21,12,37,16.40
2010,06,21,12,38,16.50
2010,06,21,12,39,16.50
2010,06,21,12,40,16.60
2010,06,21,12,41,16.60
2010,06,21,12,42,16.70
2010,06,21,12,43,16.80
2010,06,21,12,44,16.80
2010,06,21,12,45,16.90
2010,06,21,12,46,16.90
2010,06,21,12,47,16.90
2010,06,21,12,48,16.90
2010,06,21,12,49,16.90
2010,06,21,12,50,16.90
2010,06,21,12,51,16.90
2010,06,21,12,52,16.80
2010,06,21,12,53,16.80
2010,06,21,12,54,16.80
2010,06,21,12,55,16.80
2010,06,21,12,56,16.80
2010,06,21,12,57,16.80
2010,06,21,12,58,16.70
2010,06,21,12,59,16.70
2010,06,21,13,00,16.60
2010,06,21,13,01,16.50
2010,06,21,13,02,16.50
2010,06,21,13,03,16.30
2010,06,21,13,04,16.20
2010,06,21,13,05,16.10
2010,06,21,13,06,16.10
2010,06,21,13,07,16.10
2010,06,21,13,08,16.20
2010,06,21,13,09,16.30
2010,06,21,13,10,16.40
2010,06,21,13,11,16.30
2010,06,21,13,12,16.30
2010,06,21,13,13,16.20
2010,06,21,13,14,16.20
2010,06,21,13,15,16.20
2010,06,21,13,16,16.30
2010,06,21,13,17,16.30
2010,06,21,13,18,16.30
2010,06,21,13,19,16.40
2010,06,21,13,20,16.40
2010,06,21,13,21,16.40
2010,06,21,13,22,16.40
2010,06,21,13,23,16.40
2010,06,21,13,24,16.50
2010,06,21,13,25,16.70
2010,06,21,13,26,16.90
2010,06,21,13,27,16.90
2010,06,21,13,28,16.80
2010,06,21,13,29,16.80
2010,06,21,13,30,16.90
2010,06,21,13,31,16.90
2010,06,21,13,32,16.90
2010,06,21,13,33,16.90
2010,06,21,13,34,16.90
2010,06,21,13,35,16.90
2010,06,21,13,36,16.90
2010,06,21,13,37,17.00
2010,06,21,13,38,17.00
2010,06,21,13,39,16.90
2010,06,21,13,40,16.90
2010,06,21,13,41,17.00
2010,06,21,13,42,17.10
2010,06,21,13,43,17.30
2010,06,21,13,44,17.40
2010,06,21,13,45,17.50
2010,06,21,13,46,17.60
2010,06,21,13,47,17.70
2010,06,21,13,48,17.70
2010,06,21,13,49,17.60
2010,06,21,13,50,17.60
2010,06,21,13,51,17.60
2010,06,21,13,52,17.60
2010,06,21,13,53,17.60
2010,06,21,13,54,17.50
2010,06,21,13,55,17.50
2010,06,21,13,56,17.50
2010,06,21,13,57,17.60
2010,06,21,13,58,17.60
2010,06,21,13,59,17.60
2010,06,21,14,00,17.60
2010,06,21,14,01,17.60
2010,06,21,14,02,17.60
2010,06,21,14,03,17.50
2010,06,21,14,04,17.50
2010,06,21,14,05,17.50
2010,06,21,14,06,17.50
2010,06,21,14,07,17.50
2010,06,21,14,08,17.50
2010,06,21,14,09,17.60
2010,06,21,14,10,17.60
2010,06,21,14,11,17.60
2010,06,21,14,12,17.70
2010,06,21,14,13,17.70
2010,06,21,14,14,17.70
2010,06,21,14,15,17.80
2010,06,21,14,16,17.80
2010,06,21,14,17,17.80
2010,06,21,14,18,17.80
2010,06,21,14,19,17.70
2010,06,21,14,20,17.60
2010,06,21,14,21,17.60
2010,06,21,14,22,17.50
2010,06,21,14,23,17.50
2010,06,21,14,24,17.60
2010,06,21,14,25,17.60
2010,06,21,14,26,17.60
2010,06,21,14,27,17.70
2010,06,21,14,28,17.50
2010,06,21,14,29,17.50
2010,06,21,14,30,17.40
2010,06,21,14,31,17.40
2010,06,21,14,32,17.30
2010,06,21,14,33,17.30
2010,06,21,14,34,17.40
2010,06,21,14,35,17.40
2010,06,21,14,36,17.40
2010,06,21,14,37,17.50
2010,06,21,14,38,17.50
2010,06,21,14,39,17.40
2010,06,21,14,40,17.40
2010,06,21,14,41,17.40
2010,06,21,14,42,17.50
2010,06,21,14,43,17.50
2010,06,21,14,44,17.50
2010,06,21,14,45,17.60
2010,06,21,14,46,17.60
2010,06,21,14,47,17.60
2010,06,21,14,48,17.50
2010,06,21,14,49,17.40
2010,06,21,14,50,17.40
2010,06,21,14,51,17.30
2010,06,21,14,52,17.30
2010,06,21,14,53,17.20
2010,06,21,14,54,17.20
2010,06,21,14,55,17.20
2010,06,21,14,56,17.30
2010,06,21,14,57,17.30
2010,06,21,14,58,17.30
2010,06,21,14,59,17.30
2010,06,21,15,00,17.30
2010,06,21,15,01,17.30
2010,06,21,15,02,17.30
2010,06,21,15,03,17.40
2010,06,21,15,04,17.40
2010,06,21,15,05,17.30
2010,06,21,15,06,17.30
2010,06,21,15,07,17.30
2010,06,21,15,08,17.20
2010,06,21,15,09,17.10
2010,06,21,15,10,16.90
2010,06,21,15,11,16.70
2010,06,21,15,12,16.50
2010,06,21,15,13,16.40
2010,06,21,15,14,16.30
2010,06,21,15,15,16.20
2010,06,21,15,16,16.30
2010,06,21,15,17,16.20
2010,06,21,15,18,16.20
2010,06,21,15,19,16.20
2010,06,21,15,20,16.20
2010,06,21,15,21,16.20
2010,06,21,15,22,16.20
2010,06,21,15,23,16.10
2010,06,21,15,24,16.10
2010,06,21,15,25,16.00
2010,06,21,15,26,15.90
2010,06,21,15,27,16.00
2010,06,21,15,28,16.00
2010,06,21,15,29,16.00
2010,06,21,15,30,16.10
2010,06,21,15,31,16.10
2010,06,21,15,32,16.20
2010,06,21,15,33,16.20
2010,06,21,15,34,16.20
2010,06,21,15,35,16.30
2010,06,21,15,36,16.30
2010,06,21,15,37,16.30
2010,06,21,15,38,16.40
2010,06,21,15,39,16.40
2010,06,21,15,40,16.40
2010,06,21,15,41,16.50
2010,06,21,15,42,16.50
2010,06,21,15,43,16.60
2010,06,21,15,44,16.50
2010,06,21,15,45,16.50
2010,06,21,15,46,16.50
2010,06,21,15,47,16.50
2010,06,21,15,48,16.50
2010,06,21,15,49,16.60
2010,06,21,15,50,16.60
2010,06,21,15,51,16.60
2010,06,21,15,52,16.60
2010,06,21,15,53,16.50
2010,06,21,15,54,16.50
2010,06,21,15,55,16.50
2010,06,21,15,56,16.60
2010,06,21,15,57,16.60
2010,06,21,15,58,16.70
2010,06,21,15,59,16.70
2010,06,21,16,00,16.70
2010,06,21,16,01,16.70
2010,06,21,16,02,16.80
2010,06,21,16,03,16.80
2010,06,21,16,04,16.80
2010,06,21,16,05,16.80
2010,06,21,16,06,16.80
2010,06,21,16,07,16.80
2010,06,21,16,08,16.80
2010,06,21,16,09,16.80
2010,06,21,16,10,16.80
2010,06,21,16,11,16.80
2010,06,21,16,12,16.80
2010,06,21,16,13,16.90
2010,06,21,16,14,17.00
2010,06,21,16,15,17.10
2010,06,21,16,16,17.10
2010,06,21,16,17,17.10
2010,06,21,16,18,17.10
2010,06,21,16,19,17.00
2010,06,21,16,20,17.00
2010,06,21,16,21,17.00
2010,06,21,16,22,17.00
2010,06,21,16,23,16.90
2010,06,21,16,24,16.90
2010,06,21,16,25,16.80
2010,06,21,16,26,16.70
2010,06,21,16,27,16.60
2010,06,21,16,28,16.50
2010,06,21,16,29,16.50
2010,06,21,16,30,16.50
2010,06,21,16,31,16.60
2010,06,21,16,32,16.60
2010,06,21,16,33,16.50
2010,06,21,16,34,16.50
2010,06,21,16,35,16.40
2010,06,21,16,36,16.30
2010,06,21,16,37,16.20
2010,06,21,16,38,16.20
2010,06,21,16,39,16.10
2010,06,21,16,40,16.00
2010,06,21,16,41,15.80
2010,06,21,16,42,15.70
2010,06,21,16,43,15.50
2010,06,21,16,44,15.40
2010,06,21,16,45,15.40
2010,06,21,16,46,15.30
2010,06,21,16,47,15.30
2010,06,21,16,48,15.30
2010,06,21,16,49,15.30
2010,06,21,16,50,15.30
2010,06,21,16,51,15.30
2010,06,21,16,52,15.30
2010,06,21,16,53,15.40
2010,06,21,16,54,15.40
2010,06,21,16,55,15.50
2010,06,21,16,56,15.60
2010,06,21,16,57,15.60
2010,06,21,16,58,15.70
2010,06,21,16,59,15.70
2010,06,21,17,00,15.80
2010,06,21,17,01,15.90
2010,06,21,17,02,16.00
2010,06,21,17,03,16.10
2010,06,21,17,04,16.10
2010,06,21,17,05,16.10
2010,06,21,17,06,16.10
2010,06,21,17,07,16.10
2010,06,21,17,08,16.10
2010,06,21,17,09,16.10
2010,06,21,17,10,16.20
2010,06,21,17,11,16.20
2010,06,21,17,12,16.30
2010,06,21,17,13,16.40
2010,06,21,17,14,16.50
2010,06,21,17,15,16.60
2010,06,21,17,16,16.70
2010,06,21,17,17,16.70
2010,06,21,17,18,16.80
2010,06,21,17,19,16.90
2010,06,21,17,20,17.00
2010,06,21,17,21,17.10
2010,06,21,17,22,17.20
2010,06,21,17,23,17.30